�������l�o���
Date,Time,MP-1(��Sv/h),MP-2(��Sv/h),MP-3(��Sv/h),MP-4(��Sv/h),MP-5(��Sv/h),MP-6(��Sv/h),MP-7(��Sv/h),MP-8(��Sv/h),����,����(m/s),���J
2016/11/06,00:00,1.129,1.939,1.314,2.177,1.515,0.591,1.077,0.989,��,9.7,��
2016/11/06,00:10,1.131,1.937,1.312,2.179,1.515,0.588,1.078,0.989,��,11.6,��
2016/11/06,00:20,1.131,1.940,1.314,2.180,1.519,0.589,1.078,0.989,���쐼,10.1,��
2016/11/06,00:30,1.129,1.939,1.312,2.182,1.517,0.589,1.076,0.989,���쐼,5.8,��
2016/11/06,00:40,1.130,1.939,1.313,2.180,1.518,0.590,1.073,0.989,��,4.9,��
2016/11/06,00:50,1.129,1.937,1.314,2.180,1.518,0.590,1.076,0.990,���쐼,5.8,��
2016/11/06,01:00,1.126,1.939,1.310,2.183,1.517,0.589,1.077,0.990,��,6.6,��
2016/11/06,01:10,1.126,1.941,1.311,2.178,1.518,0.590,1.078,0.989,��,5.8,��
2016/11/06,01:20,1.129,1.938,1.313,2.181,1.515,0.590,1.078,0.990,���k��,2.6,��
2016/11/06,01:30,1.128,1.941,1.315,2.177,1.518,0.592,1.076,0.989,���k��,3.8,��
2016/11/06,01:40,1.131,1.940,1.316,2.175,1.520,0.590,1.077,0.989,���k��,2.9,��
2016/11/06,01:50,1.128,1.939,1.313,2.178,1.517,0.590,1.077,0.990,���쐼,4.1,��
2016/11/06,02:00,1.129,1.940,1.311,2.181,1.516,0.590,1.077,0.990,���k��,4.4,��
2016/11/06,02:10,1.129,1.942,1.314,2.179,1.518,0.590,1.077,0.989,�k��,2.8,��
2016/11/06,02:20,1.130,1.936,1.315,2.178,1.520,0.591,1.074,0.989,��,1.7,��
2016/11/06,02:30,1.129,1.937,1.313,2.177,1.515,0.589,1.075,0.989,���쓌,1.7,��
2016/11/06,02:40,1.130,1.938,1.314,2.175,1.520,0.592,1.078,0.989,���쓌,0.6,��
2016/11/06,02:50,1.129,1.939,1.312,2.179,1.518,0.589,1.077,0.987,�k��,0.6,��
2016/11/06,03:00,1.130,1.938,1.314,2.179,1.517,0.591,1.077,0.989,�k��,4.1,��
2016/11/06,03:10,1.130,1.939,1.313,2.180,1.515,0.590,1.077,0.988,�k��,5.5,��
2016/11/06,03:20,1.129,1.940,1.314,2.179,1.518,0.589,1.075,0.990,�k��,6.0,��
2016/11/06,03:30,1.128,1.938,1.315,2.179,1.519,0.588,1.076,0.989,�k��,4.9,��
2016/11/06,03:40,1.126,1.941,1.311,2.177,1.515,0.590,1.077,0.987,�k�k��,3.8,��
2016/11/06,03:50,1.129,1.936,1.311,2.178,1.516,0.589,1.075,0.990,�k��,5.5,��
2016/11/06,04:00,1.129,1.939,1.314,2.179,1.519,0.590,1.075,0.989,�k��,4.5,��
2016/11/06,04:10,1.127,1.940,1.313,2.180,1.516,0.590,1.077,0.989,�k�k��,3.5,��
2016/11/06,04:20,1.127,1.937,1.314,2.178,1.517,0.589,1.075,0.989,�k��,2.5,��
2016/11/06,04:30,1.129,1.936,1.311,2.177,1.516,0.590,1.076,0.987,�k��,6.3,��
2016/11/06,04:40,1.128,1.940,1.312,2.176,1.517,0.589,1.076,0.988,�k��,4.4,��
2016/11/06,04:50,1.126,1.939,1.310,2.175,1.513,0.589,1.076,0.988,�k�k��,6.7,��
2016/11/06,05:00,1.130,1.937,1.312,2.179,1.513,0.589,1.075,0.989,�k��,7.7,��
2016/11/06,05:10,1.127,1.937,1.312,2.177,1.514,0.588,1.075,0.987,�k��,5.8,��
2016/11/06,05:20,1.126,1.938,1.313,2.178,1.516,0.588,1.074,0.987,�k��,8.0,��
2016/11/06,05:30,1.126,1.939,1.311,2.176,1.517,0.588,1.076,0.988,�k��,7.1,��
2016/11/06,05:40,1.126,1.937,1.313,2.178,1.516,0.587,1.075,0.988,�k��,6.6,��
2016/11/06,05:50,1.126,1.939,1.313,2.176,1.517,0.590,1.075,0.990,�k��,7.8,��
2016/11/06,06:00,1.125,1.937,1.311,2.178,1.518,0.587,1.073,0.986,�k��,9.7,��
2016/11/06,06:10,1.125,1.939,1.313,2.177,1.513,0.587,1.074,0.989,�k��,12.6,��
2016/11/06,06:20,1.125,1.938,1.310,2.175,1.515,0.588,1.074,0.989,�k��,12.5,��
2016/11/06,06:30,1.126,1.939,1.313,2.177,1.516,0.586,1.071,0.991,�k��,9.7,��
2016/11/06,06:40,1.125,1.939,1.310,2.177,1.514,0.587,1.073,0.989,�k��,8.3,��
2016/11/06,06:50,1.127,1.937,1.312,2.177,1.517,0.588,1.074,0.988,�k��,8.3,��
2016/11/06,07:00,1.125,1.938,1.312,2.178,1.516,0.587,1.071,0.988,���k��,5.8,��
2016/11/06,07:10,1.125,1.940,1.312,2.179,1.513,0.587,1.070,0.988,�k��,4.9,��
2016/11/06,07:20,1.125,1.940,1.312,2.180,1.517,0.585,1.071,0.987,�k��,4.1,��
2016/11/06,07:30,1.123,1.940,1.313,2.176,1.513,0.586,1.072,0.987,�k��,3.0,��
2016/11/06,07:40,1.125,1.938,1.312,2.183,1.513,0.588,1.073,0.987,�k��,2.3,��
2016/11/06,07:50,1.126,1.939,1.312,2.179,1.515,0.588,1.073,0.989,�k��,3.3,��
2016/11/06,08:00,1.124,1.940,1.311,2.176,1.517,0.588,1.074,0.988,�k��,3.2,��
2016/11/06,08:10,1.125,1.937,1.314,2.179,1.516,0.587,1.073,0.989,�k��,4.4,��
2016/11/06,08:20,1.124,1.940,1.310,2.180,1.516,0.588,1.071,0.988,�k��,4.9,��
2016/11/06,08:30,1.126,1.937,1.311,2.179,1.515,0.588,1.073,0.988,�k��,6.1,��
2016/11/06,08:40,1.126,1.937,1.312,2.178,1.515,0.587,1.073,0.988,���k��,5.2,��
2016/11/06,08:50,1.123,1.937,1.313,2.179,1.517,0.587,1.073,0.989,���k��,5.2,��
2016/11/06,09:00,1.125,1.942,1.313,2.179,1.518,0.587,1.072,0.989,�k��,6.0,��
2016/11/06,09:10,1.127,1.946,1.312,2.176,1.520,0.586,1.071,0.987,�k��,6.6,��
2016/11/06,09:20,1.125,1.941,1.312,2.180,1.518,0.586,1.070,0.990,���k��,5.0,��
2016/11/06,09:30,1.125,1.939,1.314,2.181,1.516,0.587,1.071,0.987,���k��,6.0,��
2016/11/06,09:40,1.125,1.946,1.314,2.178,1.517,0.586,1.070,0.988,���k��,6.6,��
2016/11/06,09:50,1.126,1.940,1.314,2.179,1.517,0.587,1.072,0.988,���k��,6.0,��
2016/11/06,10:00,1.125,1.936,1.315,2.182,1.517,0.586,1.073,0.988,���k��,6.6,��
2016/11/06,10:10,1.127,1.942,1.316,2.181,1.518,0.585,1.072,0.987,��,6.4,��
2016/11/06,10:20,1.125,1.939,1.315,2.182,1.515,0.585,1.072,0.988,���k��,5.6,��
2016/11/06,10:30,1.126,1.940,1.316,2.181,1.517,0.586,1.073,0.985,���k��,5.2,��
2016/11/06,10:40,1.126,1.938,1.314,2.182,1.516,0.585,1.072,0.985,��,5.6,��
2016/11/06,10:50,1.125,1.936,1.312,2.181,1.515,0.585,1.071,0.985,���k��,6.0,��
2016/11/06,11:00,1.128,1.940,1.313,2.183,1.519,0.585,1.074,0.986,��,4.9,��
2016/11/06,11:10,1.124,1.939,1.316,2.183,1.516,0.587,1.072,0.989,���k��,6.9,��
2016/11/06,11:20,1.128,1.942,1.315,2.181,1.518,0.586,1.071,0.989,���k��,6.4,��
2016/11/06,11:30,1.127,1.942,1.314,2.183,1.519,0.586,1.074,0.990,���k��,5.5,��
2016/11/06,11:40,1.124,1.941,1.313,2.183,1.520,0.587,1.072,0.986,���k��,5.0,��
2016/11/06,11:50,1.127,1.941,1.313,2.183,1.517,0.588,1.075,0.988,��,6.6,��
2016/11/06,12:00,1.123,1.943,1.315,2.183,1.523,0.589,1.074,0.989,���k��,6.1,��
2016/11/06,12:10,1.123,1.944,1.314,2.187,1.520,0.590,1.073,0.987,���k��,5.3,��
2016/11/06,12:20,1.126,1.943,1.313,2.183,1.519,0.589,1.073,0.985,�k��,5.3,��
2016/11/06,12:30,1.127,1.941,1.315,2.184,1.523,0.589,1.072,0.987,���k��,4.4,��
2016/11/06,12:40,1.125,1.945,1.314,2.187,1.520,0.587,1.072,0.985,�k��,6.1,��
2016/11/06,12:50,1.124,1.942,1.315,2.185,1.522,0.588,1.072,0.983,�k�k��,4.5,��
2016/11/06,13:00,1.123,1.942,1.315,2.185,1.521,0.589,1.071,0.984,�k��,5.8,��
2016/11/06,13:10,1.126,1.946,1.314,2.184,1.521,0.589,1.072,0.983,�k��,7.1,��
2016/11/06,13:20,1.126,1.944,1.314,2.187,1.524,0.588,1.072,0.985,���k��,5.8,��
2016/11/06,13:30,1.125,1.944,1.315,2.187,1.521,0.588,1.072,0.985,���k��,6.7,��
2016/11/06,13:40,1.127,1.945,1.314,2.186,1.523,0.587,1.073,0.985,���k��,4.4,��
2016/11/06,13:50,1.124,1.941,1.314,2.187,1.522,0.588,1.074,0.985,���k��,6.0,��
2016/11/06,14:00,1.125,1.947,1.316,2.190,1.525,0.586,1.070,0.985,���k��,6.0,��
2016/11/06,14:10,1.124,1.942,1.315,2.189,1.526,0.588,1.072,0.983,�k��,5.8,��
2016/11/06,14:20,1.125,1.943,1.314,2.184,1.523,0.586,1.072,0.985,�k�k��,7.2,��
2016/11/06,14:30,1.125,1.944,1.315,2.186,1.522,0.589,1.071,0.987,�k�k��,7.1,��
2016/11/06,14:40,1.126,1.942,1.317,2.187,1.525,0.588,1.072,0.983,�k�k��,8.0,��
2016/11/06,14:50,1.128,1.946,1.313,2.188,1.520,0.587,1.073,0.985,�k�k��,6.9,��
2016/11/06,15:00,1.129,1.944,1.314,2.189,1.523,0.588,1.071,0.985,�k�k��,7.1,��
2016/11/06,15:10,1.126,1.943,1.314,2.186,1.524,0.586,1.073,0.984,�k�k��,5.6,��
2016/11/06,15:20,1.129,1.945,1.315,2.187,1.518,0.585,1.072,0.984,�k�k��,7.4,��
2016/11/06,15:30,1.129,1.944,1.316,2.190,1.522,0.587,1.073,0.983,�k�k��,6.9,��
2016/11/06,15:40,1.130,1.947,1.317,2.185,1.521,0.586,1.071,0.985,�k�k��,7.7,��
2016/11/06,15:50,1.126,1.947,1.318,2.187,1.524,0.588,1.071,0.988,�k�k��,6.4,��
2016/11/06,16:00,1.126,1.948,1.318,2.185,1.520,0.586,1.073,0.989,�k�k��,7.4,��
2016/11/06,16:10,1.126,1.948,1.316,2.186,1.524,0.585,1.070,0.986,�k�k��,6.3,��
2016/11/06,16:20,1.124,1.948,1.315,2.183,1.523,0.586,1.071,0.989,�k�k��,7.4,��
2016/11/06,16:30,1.127,1.947,1.313,2.182,1.521,0.586,1.072,0.985,�k�k��,8.3,��
2016/11/06,16:40,1.125,1.950,1.313,2.184,1.519,0.584,1.072,0.988,�k��,9.7,��
2016/11/06,16:50,1.126,1.947,1.313,2.184,1.526,0.585,1.072,0.987,�k��,9.7,��
2016/11/06,17:00,1.121,1.947,1.313,2.186,1.524,0.586,1.072,0.987,�k��,9.6,��
2016/11/06,17:10,1.123,1.948,1.312,2.184,1.525,0.585,1.073,0.987,�k��,7.4,��
2016/11/06,17:20,1.123,1.945,1.313,2.186,1.525,0.585,1.072,0.987,�k��,6.7,��
2016/11/06,17:30,1.123,1.943,1.310,2.185,1.522,0.584,1.072,0.987,�k�k��,5.8,��
2016/11/06,17:40,1.123,1.946,1.312,2.183,1.522,0.585,1.072,0.986,�k�k��,6.9,��
2016/11/06,17:50,1.124,1.945,1.314,2.186,1.522,0.585,1.071,0.985,�k�k��,8.6,��
2016/11/06,18:00,1.123,1.944,1.313,2.182,1.522,0.584,1.073,0.987,�k�k��,6.9,��
2016/11/06,18:10,1.125,1.946,1.313,2.186,1.522,0.584,1.074,0.985,�k�k��,8.0,��
2016/11/06,18:20,1.123,1.944,1.314,2.185,1.523,0.584,1.073,0.988,�k�k��,8.9,��
2016/11/06,18:30,1.124,1.944,1.312,2.182,1.521,0.585,1.073,0.986,�k�k��,8.8,��
2016/11/06,18:40,1.121,1.948,1.312,2.183,1.523,0.584,1.074,0.987,�k�k��,7.1,��
2016/11/06,18:50,1.120,1.946,1.311,2.184,1.521,0.584,1.073,0.987,�k�k��,7.4,��
2016/11/06,19:00,1.121,1.945,1.311,2.187,1.522,0.584,1.072,0.987,�k�k��,8.6,��
2016/11/06,19:10,1.124,1.942,1.311,2.187,1.521,0.585,1.072,0.987,�k�k��,7.7,��
2016/11/06,19:20,1.123,1.943,1.314,2.181,1.523,0.583,1.073,0.987,�k�k��,8.2,��
2016/11/06,19:30,1.119,1.943,1.311,2.184,1.524,0.584,1.072,0.986,�k�k��,8.6,��
2016/11/06,19:40,1.120,1.943,1.308,2.179,1.521,0.584,1.072,0.985,�k�k��,9.7,��
2016/11/06,19:50,1.119,1.945,1.311,2.183,1.522,0.584,1.073,0.985,�k�k��,9.4,��
2016/11/06,20:00,1.121,1.942,1.311,2.181,1.521,0.582,1.072,0.986,�k�k��,7.8,��
2016/11/06,20:10,1.121,1.943,1.309,2.185,1.522,0.581,1.072,0.985,�k�k��,9.1,��
2016/11/06,20:20,1.120,1.941,1.311,2.184,1.520,0.583,1.070,0.984,�k�k��,8.9,��
2016/11/06,20:30,1.120,1.944,1.310,2.184,1.525,0.582,1.068,0.986,�k�k��,8.0,��
2016/11/06,20:40,1.119,1.944,1.310,2.184,1.521,0.583,1.071,0.985,�k�k��,8.6,��
2016/11/06,20:50,1.118,1.946,1.308,2.184,1.519,0.584,1.069,0.985,�k�k��,9.6,��
2016/11/06,21:00,1.120,1.947,1.309,2.185,1.521,0.582,1.070,0.984,�k�k��,8.6,��
2016/11/06,21:10,1.118,1.946,1.309,2.183,1.519,0.580,1.071,0.986,�k�k��,8.3,��
2016/11/06,21:20,1.120,1.945,1.311,2.183,1.520,0.582,1.070,0.984,�k�k��,8.0,��
2016/11/06,21:30,1.119,1.944,1.311,2.184,1.520,0.581,1.068,0.985,�k�k��,7.7,��
2016/11/06,21:40,1.118,1.946,1.310,2.182,1.520,0.582,1.071,0.985,�k�k��,7.4,��
2016/11/06,21:50,1.121,1.942,1.310,2.182,1.523,0.583,1.068,0.985,�k�k��,6.1,��
2016/11/06,22:00,1.120,1.941,1.309,2.181,1.523,0.581,1.072,0.983,�k�k��,6.3,��
2016/11/06,22:10,1.118,1.942,1.307,2.184,1.520,0.582,1.070,0.984,�k�k��,6.7,��
2016/11/06,22:20,1.117,1.942,1.307,2.180,1.519,0.581,1.070,0.984,�k�k��,5.8,��
2016/11/06,22:30,1.118,1.943,1.308,2.179,1.520,0.582,1.070,0.986,�k�k��,5.2,��
2016/11/06,22:40,1.118,1.942,1.309,2.179,1.518,0.580,1.071,0.985,�k�k��,4.5,��
2016/11/06,22:50,1.116,1.942,1.307,2.178,1.518,0.581,1.069,0.985,�k�k��,5.5,��
2016/11/06,23:00,1.118,1.943,1.310,2.180,1.516,0.581,1.070,0.985,�k�k��,6.3,��
2016/11/06,23:10,1.117,1.940,1.310,2.183,1.521,0.582,1.069,0.984,�k�k��,4.9,��
2016/11/06,23:20,1.119,1.939,1.307,2.179,1.514,0.582,1.068,0.986,�k�k��,5.5,��
2016/11/06,23:30,1.118,1.938,1.307,2.184,1.521,0.581,1.071,0.985,�k�k��,4.9,��
2016/11/06,23:40,1.117,1.940,1.307,2.177,1.515,0.582,1.068,0.983,�k�k��,5.5,��
2016/11/06,23:50,1.118,1.942,1.306,2.182,1.520,0.581,1.069,0.985,�k�k��,5.5,��
